SCOUT B R/B, 3341

Orbit data source: Space-Track

SCOUT B R/B, 3341 is space debris in LEO originally from a launch on Thu, 08 Aug 1968 UTC launched from the Air Force Western Test Range (AFWTR). Debris objects in space refer to the collection of defunct objects orbiting the Earth. Examples of debris include non-operational satellites, rocket bodies, and fragments generated from explosions, collisions, or faulty payload assembly.

Loading next visibility...
Identifier
3341, 1968-066C
Orbit
LEO
Last TLE update
13 hours ago
Origin
Manufacturer
UTC
Mission
Spacecraft
Bus & Motor
FW4, Unknown motor
Mass
47 kg wet, 47 kg dry
Launch date (UTC)
1968-08-08 (57 years ago)
Launch vehicle
Unknown
Launch site
Air Force Western Test Range (AFWTR)
Object type
Payload
Rocket body
Debris
Shape & HBR
Cyl, 1.5 m
Radar Cross Section
0.687 m², Medium (>0.1 m² and < 1m²)

Expand to show TLE details & history

TLE from 13 hours ago
0 SCOUT B R/B
1 03341U 68066C   25128.69396602  .00000085  00000-0  89603-4 0  9999
2 03341  80.6645   2.7086 1117201 317.4179  34.5282 12.25985750513940
Epoch: 2025-05-08T16:39Z
Definitive object data (Epoch: 2025-05-08T16:39:18.664Z)
Latitude
0.00001°
Longitude
-113.87995°
Altitude
874.685 km
Speed
7.732 km/s
True Right ascension
00h 10m 50s
True Declination
0° 00' 00"
Sunlit
Object was in daylight at TLE epoch
Visualization TLE readout
Latitude
-2.45472°
Longitude
66.11144°
Altitude
2,129.901 km
Speed
6.6 km/s
Apparent Right ascension
10h 31m 36s
Apparent Declination
-45° 29' 57"
Sunlit
Object is in full shadow
Visualization observer readout
Local Sidereal Time
13:38:24
Azimuth
210.806° SW
Elevation
-5.104°
Doppler factor
1
Orbital elements
Apogee altitude
2,451.274 km
Perigee altitude
676.686 km
Semi-major axis
7,942.117 km
Eccentricity
0.1117201
Inclination
80.6645°
RAAN
2.7086°
Arg. of periapsis
317.4179°
True anomaly
42.69425°
Mean anomaly
34.5282°
Eccentric anomaly
38.51422°
Mean motion
3.06647 °/min
BSTAR
0.000089603
Orbital period
117.4 mins
Loading maneuver chart data...
Loading SW <> Apogee altitude chart data...
Loading historical data...
Loading historical data...
Loading historical data...
Loading historical data...
Loading historical data...
Loading historical data...
Loading historical data...

SCOUT B R/B Visibility forecast

Observer location: undefined°, undefined°

Span
Click to sort rows by Start time (UTC) header in descending order
Start Az.
Max El. time (UTC)
Max El. Az.
Max El.
End time (UTC)
End Az.
7 mins2025-05-09 14:21:43.596Z94.663° ESE2025-05-09 14:24:43.596Z71.73° E13.007°2025-05-09 14:28:43.596Z45.457° ENE
15 mins2025-05-09 16:15:43.596Z182.273° SSW2025-05-09 16:20:43.596Z138.024° SSE44.491°2025-05-09 16:30:43.596Z11.855° NNE
11 mins2025-05-09 18:17:43.596Z271.181° WNW2025-05-09 18:21:43.596Z305.584° NW19.894°2025-05-09 18:28:43.596Z350.189° N
16 mins2025-05-10 00:35:43.596Z16.432° NNE2025-05-10 00:42:43.596Z50.474° ENE18.702°2025-05-10 00:51:43.596Z92.764° ESE
25 mins2025-05-10 02:32:43.596Z355.573° N2025-05-10 02:44:43.596Z70.988° E42.332°2025-05-10 02:57:43.596Z156.296° SSE
22 mins2025-05-10 04:32:43.596Z334.629° NNW2025-05-10 04:42:43.596Z279.576° WNW33.802°2025-05-10 04:54:43.596Z212.509° SW
|